QPF
0.04 0.01 0.00 0.00 0.00 0.00 0.00 0.00 0.00 0.00 0.00 0.00 0.01 0.01 0.00 0.00 0.00 0.00 0.00 0.00 0.00 0.00 0.00 0.01 0.04 0.00 0.00 0.00 0.01 0.00 0.00 0.00 0.00 0.01 0.00 0.05 0.02 0.00 0.00 0.01 0.00 0.00 0.00 0.00 0.00 0.00 0.00 0.00 0.00
0.00 0.00 0.00 0.00 0.00 0.00 0.01 0.00 0.00 0.00 0.00 0.00 0.00 0.00 0.00 0.00 0.00 0.00 0.00 0.00 0.00 0.00 0.00 0.00 0.01 0.01 0.01 0.02 0.00 0.00 0.01 0.01 0.02 0.06 0.05 0.04 0.02 0.01 0.00 0.00 0.00 0.00 0.00 0.00 0.00 0.00 0.00 0.00 0.00
0.00 0.00 0.00 0.00 0.00 0.00 0.00 0.00 0.00 0.00 0.00 0.00 0.00 0.00 0.00 0.00 0.00 0.00 0.00 0.00 0.00 0.00 0.00 0.00 0.01 0.00 0.03 0.02 0.03 0.01 0.04 0.05 0.03 0.04 0.05 0.04 0.01 0.01 0.01 0.01 0.00 0.00 0.00 0.00 0.00 0.00 0.00 0.00 0.00
0.00 0.00 0.00 0.00 0.00 0.00 0.00 0.00 0.00 0.00 0.00 0.00 0.00 0.00 0.00 0.00 0.00 0.00 0.00 0.00 0.00 0.00 0.00 0.00 0.04 0.04 0.02 0.02 0.07 0.06 0.05 0.01 0.01 0.01 0.02 0.03 0.01 0.00 0.00 0.00 0.01 0.01 0.00 0.00 0.00 0.00 0.00 0.00 0.00
0.00 0.00 0.00 0.00 0.00 0.00 0.00 0.00 0.00 0.00 0.00 0.00 0.00 0.00 0.00 0.00 0.00 0.00 0.00 0.00 0.00 0.00 0.00 0.00 0.03 0.01 0.00 0.01 0.03 0.01 0.02 0.03 0.01 0.02 0.03 0.01 0.00 0.00 0.01 0.00 0.00 0.00 0.00 0.00 0.00 0.00 0.00 0.00 0.00
0.00 0.00 0.00 0.00 0.00 0.00 0.00 0.00 0.00 0.00 0.00 0.00 0.00 0.00 0.00 0.00 0.00 0.00 0.00 0.00 0.00 0.00 0.00 0.00 0.00 0.01 0.01 0.03 0.03 0.01 0.00 0.01 0.01 0.01 0.01 0.00 0.00 0.00 0.00 0.00 0.00 0.00 0.00 0.00 0.00 0.00 0.00 0.00 0.00
0.00 0.00 0.00 0.00 0.00 0.00 0.00 0.00 0.00 0.00 0.00 0.00 0.00 0.00 0.00 0.00 0.00 0.00 0.00 0.00 0.00 0.00 0.00 0.00 0.00 0.01 0.00 0.02 0.00 0.00 0.00 0.00 0.00 0.00 0.00 0.00 0.00 0.00 0.00 0.00 0.00 0.00 0.00 0.00 0.00 0.00 0.00 0.00 0.00
0.00 0.00 0.00 0.00 0.00 0.00 0.00 0.00 0.00 0.00 0.00 0.00 0.00 0.00 0.00 0.00 0.00 0.00 0.00 0.00 0.00 0.00 0.00 0.00 0.01 0.01 0.00 0.00 0.00 0.00 0.00 0.00 0.00 0.00 0.00 0.00 0.00 0.00 0.00 0.00 0.00 0.00 0.00 0.00 0.00 0.00 0.00 0.00 0.00
0.00 0.00 0.00 0.00 0.00 0.00 0.00 0.00 0.00 0.00 0.00 0.00 0.00 0.00 0.00 0.00 0.00 0.00 0.00 0.00 0.00 0.00 0.00 0.00 0.00 0.00 0.00 0.00 0.00 0.00 0.00 0.00 0.00 0.00 0.00 0.00 0.00 0.00 0.00 0.00 0.00 0.00 0.00 0.00 0.00 0.00 0.00 0.00 0.00
0.00 0.00 0.00 0.00 0.00 0.00 0.00 0.00 0.00 0.00 0.00 0.00 0.00 0.00 0.00 0.00 0.00 0.00 0.00 0.00 0.00 0.00 0.00 0.00 0.00 0.00 0.00 0.00 0.00 0.00 0.00 0.00 0.00 0.00 0.00 0.00 0.00 0.00 0.00 0.00 0.00 0.00 0.00 0.00 0.00 0.00 0.00 0.00 0.00
0.00 0.00 0.00 0.00 0.00 0.00 0.00 0.00 0.00 0.00 0.00 0.00 0.00 0.00 0.00 0.00 0.00 0.00 0.00 0.00 0.00 0.00 0.00 0.00 0.00 0.00 0.00 0.00 0.00 0.00 0.00 0.00 0.00 0.00 0.00 0.00 0.00 0.00 0.00 0.00 0.00 0.00 0.02 0.00 0.00 0.00 0.00 0.00 0.00
0.00 0.00 0.00 0.00 0.00 0.00 0.00 0.00 0.00 0.00 0.00 0.00 0.00 0.00 0.00 0.00 0.00 0.00 0.00 0.00 0.00 0.00 0.00 0.00 0.00 0.00 0.00 0.00 0.00 0.00 0.00 0.00 0.00 0.00 0.00 0.00 0.00 0.00 0.00 0.00 0.00 0.00 0.01 0.00 0.00 0.00 0.00 0.00 0.00
0.00 0.00 0.00 0.00 0.00 0.00 0.00 0.00 0.00 0.00 0.00 0.00 0.00 0.00 0.00 0.00 0.00 0.00 0.00 0.00 0.00 0.00 0.00 0.00 0.00 0.00 0.00 0.00 0.00 0.00 0.00 0.00 0.00 0.00 0.00 0.00 0.00 0.00 0.00 0.00 0.00 0.00 0.00 0.00 0.00 0.00 0.00 0.00 0.00
0.00 0.00 0.00 0.00 0.00 0.00 0.00 0.00 0.00 0.00 0.00 0.00 0.00 0.00 0.00 0.00 0.00 0.00 0.00 0.00 0.00 0.00 0.00 0.00 0.00 0.00 0.00 0.00 0.00 0.00 0.00 0.00 0.00 0.00 0.00 0.00 0.00 0.00 0.00 0.00 0.00 0.00 0.00 0.00 0.00 0.00 0.00 0.00 0.00
0.00 0.00 0.00 0.00 0.00 0.00 0.00 0.00 0.00 0.00 0.00 0.00 0.00 0.00 0.00 0.00 0.00 0.00 0.00 0.00 0.00 0.00 0.00 0.00 0.00 0.00 0.00 0.00 0.00 0.00 0.00 0.00 0.00 0.00 0.00 0.00 0.00 0.00 0.00 0.00 0.00 0.00 0.00 0.00 0.00 0.00 0.00 0.00 0.00
0.00 0.00 0.00 0.00 0.00 0.00 0.00 0.00 0.00 0.00 0.00 0.00 0.00 0.00 0.00 0.00 0.00 0.00 0.00 0.00 0.00 0.00 0.00 0.00 0.00 0.00 0.00 0.00 0.00 0.00 0.00 0.00 0.00 0.00 0.00 0.00 0.00 0.00 0.00 0.00 0.00 0.00 0.00 0.00 0.00 0.00 0.00 0.00 0.00
0.00 0.00 0.00 0.00 0.00 0.00 0.00 0.00 0.00 0.00 0.00 0.00 0.00 0.00 0.00 0.00 0.00 0.00 0.00 0.00 0.00 0.00 0.00 0.00 0.00 0.00 0.00 0.00 0.00 0.00 0.00 0.00 0.00 0.00 0.00 0.00 0.00 0.00 0.00 0.00 0.00 0.00 0.00 0.00 0.00 0.00 0.00 0.00 0.00
0.00 0.00 0.00 0.00 0.00 0.00 0.00 0.00 0.00 0.00 0.00 0.00 0.00 0.00 0.00 0.00 0.00 0.00 0.00 0.00 0.00 0.00 0.00 0.00 0.00 0.00 0.00 0.00 0.00 0.00 0.00 0.00 0.00 0.00 0.00 0.00 0.00 0.00 0.00 0.00 0.00 0.00 0.00 0.00 0.01 0.03 0.01 0.00 0.00
0.00 0.00 0.00 0.00 0.00 0.00 0.00 0.00 0.00 0.00 0.00 0.00 0.00 0.00 0.00 0.00 0.00 0.00 0.00 0.00 0.00 0.00 0.00 0.00 0.00 0.00 0.00 0.00 0.00 0.00 0.00 0.00 0.00 0.00 0.00 0.00 0.00 0.00 0.00 0.00 0.00 0.00 0.00 0.00 0.00 0.02 0.00 0.00 0.00
0.00 0.00 0.00 0.00 0.00 0.00 0.00 0.00 0.00 0.00 0.00 0.00 0.00 0.00 0.00 0.00 0.00 0.00 0.00 0.00 0.00 0.00 0.00 0.00 0.00 0.00 0.00 0.00 0.00 0.00 0.00 0.00 0.00 0.00 0.00 0.00 0.00 0.00 0.00 0.00 0.01 0.04 0.04 0.08 0.08 0.03 0.09 0.06 0.05
0.00 0.00 0.00 0.00 0.00 0.00 0.00 0.00 0.00 0.00 0.00 0.00 0.00 0.00 0.00 0.00 0.00 0.00 0.00 0.00 0.00 0.00 0.00 0.00 0.00 0.00 0.00 0.00 0.00 0.00 0.00 0.00 0.00 0.00 0.00 0.00 0.00 0.00 0.00 0.00 0.01 0.06 0.02 0.03 0.18 0.36 0.32 0.15 0.13
0.00 0.00 0.00 0.00 0.00 0.00 0.00 0.00 0.00 0.00 0.00 0.00 0.00 0.00 0.00 0.00 0.00 0.00 0.00 0.00 0.00 0.00 0.00 0.00 0.00 0.00 0.00 0.00 0.00 0.00 0.00 0.00 0.00 0.00 0.02 0.02 0.00 0.00 0.01 0.00 0.01 0.02 0.02 0.07 0.18 0.48 0.78 0.33 0.21
0.00 0.00 0.00 0.00 0.00 0.00 0.00 0.00 0.00 0.00 0.00 0.00 0.00 0.00 0.00 0.00 0.00 0.00 0.00 0.01 0.01 0.00 0.00 0.00 0.00 0.00 0.00 0.00 0.00 0.00 0.00 0.00 0.02 0.06 0.04 0.03 0.04 0.03 0.03 0.06 0.04 0.07 0.10 0.10 0.33 0.41 0.46 0.20 0.11
0.00 0.00 0.00 0.00 0.00 0.00 0.00 0.00 0.00 0.00 0.00 0.00 0.00 0.00 0.00 0.00 0.00 0.00 0.00 0.01 0.02 0.04 0.01 0.03 0.00 0.00 0.00 0.00 0.00 0.00 0.00 0.07 0.09 0.03 0.02 0.01 0.01 0.00 0.01 0.03 0.08 0.20 0.29 0.23 0.11 0.07 0.03 0.02 0.01
0.00 0.00 0.00 0.00 0.00 0.00 0.00 0.00 0.00 0.00 0.00 0.00 0.00 0.00 0.00 0.00 0.00 0.00 0.00 0.01 0.05 0.03 0.02 0.02 0.00 0.00 0.00 0.00 0.00 0.00 0.00 0.12 0.06 0.02 0.01 0.00 0.00 0.00 0.01 0.09 0.17 0.22 0.26 0.23 0.12 0.04 0.00 0.00 0.00
0.00 0.00 0.00 0.00 0.00 0.00 0.00 0.00 0.00 0.00 0.00 0.00 0.00 0.00 0.00 0.00 0.00 0.00 0.00 0.00 0.03 0.09 0.03 0.02 0.00 0.00 0.00 0.00 0.01 0.00 0.01 0.02 0.06 0.08 0.07 0.09 0.07 0.06 0.03 0.06 0.17 0.14 0.13 0.08 0.02 0.00 0.00 0.00 0.00
0.00 0.00 0.00 0.00 0.00 0.00 0.00 0.00 0.00 0.00 0.00 0.00 0.00 0.00 0.00 0.00 0.00 0.00 0.00 0.00 0.00 0.06 0.02 0.00 0.00 0.00 0.00 0.00 0.02 0.05 0.03 0.04 0.07 0.19 0.44 0.52 0.45 0.33 0.22 0.14 0.10 0.07 0.05 0.02 0.00 0.00 0.00 0.00 0.00
0.00 0.00 0.00 0.00 0.00 0.00 0.00 0.00 0.00 0.00 0.00 0.00 0.00 0.00 0.00 0.00 0.00 0.00 0.00 0.00 0.00 0.00 0.00 0.00 0.00 0.00 0.00 0.05 0.11 0.12 0.17 0.29 0.46 0.35 0.16 0.09 0.11 0.07 0.06 0.04 0.03 0.01 0.00 0.00 0.00 0.00 0.00 0.00 0.00
0.00 0.00 0.00 0.00 0.00 0.00 0.00 0.00 0.00 0.00 0.00 0.00 0.00 0.00 0.00 0.00 0.00 0.00 0.00 0.00 0.00 0.00 0.00 0.00 0.00 0.02 0.07 0.17 0.16 0.17 0.29 0.29 0.15 0.08 0.01 0.01 0.00 0.00 0.00 0.00 0.00 0.00 0.00 0.00 0.00 0.00 0.00 0.00 0.00
0.00 0.00 0.00 0.00 0.00 0.00 0.00 0.00 0.00 0.00 0.00 0.00 0.00 0.00 0.00 0.00 0.00 0.00 0.00 0.00 0.00 0.00 0.00 0.00 0.00 0.01 0.05 0.07 0.13 0.09 0.09 0.14 0.03 0.02 0.00 0.00 0.01 0.01 0.00 0.00 0.00 0.00 0.00 0.00 0.00 0.00 0.00 0.00 0.00
MSLP
1009.52 1008.79 1008.52 1007.62 1006.44 1004.42 1004.79 1006.12 1006.39 1007.15 1007.75 1008.49 1008.95 1009.11 1009.28 1009.85 1009.63 1010.55 1012.46 1013.03 1013.65 1014.04 1014.85 1015.87 1016.30 1016.31 1016.54 1016.67 1016.76 1016.99 1017.20 1017.34 1017.50 1017.67 1017.72 1017.90 1018.06 1018.06 1018.11 1018.22 1018.29 1018.35 1018.42 1018.51 1018.55 1018.69 1018.73 1018.78 1018.91
1008.59 1008.82 1008.14 1006.58 1004.91 1003.94 1005.31 1005.96 1006.43 1007.18 1008.10 1008.89 1009.49 1009.53 1009.77 1010.26 1011.06 1011.74 1012.49 1013.32 1013.69 1013.87 1014.73 1015.31 1016.31 1016.44 1016.66 1016.78 1016.98 1017.20 1017.35 1017.48 1017.69 1017.78 1017.93 1018.12 1018.14 1018.20 1018.32 1018.35 1018.45 1018.62 1018.70 1018.77 1018.84 1018.92 1019.01 1019.10 1019.18
1009.02 1008.77 1007.25 1005.26 1004.28 1004.12 1005.32 1006.35 1007.03 1007.78 1008.59 1008.87 1009.29 1009.89 1010.12 1010.82 1011.60 1011.77 1012.45 1013.43 1013.69 1013.98 1014.38 1015.56 1016.42 1016.56 1016.75 1016.98 1017.18 1017.44 1017.66 1017.72 1017.91 1018.13 1018.23 1018.24 1018.31 1018.36 1018.44 1018.56 1018.74 1018.85 1018.93 1018.98 1019.06 1019.18 1019.24 1019.31 1019.35
1008.34 1007.65 1006.58 1004.92 1004.79 1005.44 1005.71 1006.55 1007.24 1007.84 1008.55 1008.92 1009.20 1009.73 1010.87 1011.37 1011.71 1012.03 1013.11 1013.50 1013.85 1014.13 1014.48 1016.17 1016.45 1016.65 1016.96 1017.30 1017.59 1017.72 1017.82 1017.91 1018.02 1018.07 1018.26 1018.40 1018.44 1018.50 1018.63 1018.78 1018.90 1018.96 1019.07 1019.17 1019.24 1019.29 1019.35 1019.39 1019.43
1008.14 1007.05 1005.34 1004.92 1005.22 1005.72 1006.20 1006.84 1007.29 1007.43 1008.11 1008.77 1009.11 1009.86 1010.97 1012.03 1012.32 1012.81 1013.35 1013.63 1013.84 1014.33 1014.60 1015.86 1016.55 1016.85 1017.14 1017.44 1017.68 1017.89 1017.95 1018.08 1018.12 1018.20 1018.46 1018.53 1018.67 1018.74 1018.83 1018.97 1019.07 1019.17 1019.28 1019.30 1019.35 1019.38 1019.44 1019.44 1019.43
1007.01 1006.50 1004.83 1004.70 1005.66 1006.16 1006.49 1006.93 1007.18 1007.41 1008.10 1008.65 1009.18 1009.83 1011.02 1012.20 1012.53 1013.00 1013.48 1013.62 1013.60 1014.14 1014.65 1015.83 1016.83 1017.05 1017.31 1017.45 1017.68 1017.93 1018.07 1018.23 1018.23 1018.36 1018.47 1018.68 1018.83 1018.94 1019.06 1019.17 1019.26 1019.38 1019.50 1019.52 1019.50 1019.47 1019.44 1019.37 1019.32
1006.49 1005.21 1005.05 1004.91 1005.59 1006.04 1006.60 1007.13 1006.93 1007.26 1007.87 1008.33 1008.95 1009.43 1011.26 1011.98 1012.52 1013.01 1013.64 1013.82 1013.85 1014.22 1014.63 1015.39 1016.19 1016.87 1017.31 1017.48 1017.76 1017.94 1018.03 1018.25 1018.28 1018.49 1018.67 1018.85 1018.97 1019.10 1019.19 1019.32 1019.41 1019.49 1019.59 1019.68 1019.70 1019.63 1019.48 1019.35 1019.29
1007.03 1005.47 1005.10 1005.11 1005.19 1005.79 1006.67 1006.99 1007.45 1007.22 1007.82 1008.66 1008.83 1009.17 1010.48 1011.68 1012.61 1013.21 1013.78 1014.05 1014.23 1014.46 1014.57 1015.04 1015.88 1016.26 1016.61 1017.15 1017.80 1017.97 1018.18 1018.35 1018.46 1018.61 1018.84 1018.96 1019.04 1019.16 1019.28 1019.45 1019.48 1019.56 1019.62 1019.64 1019.61 1019.56 1019.46 1019.32 1019.19
1007.09 1005.01 1004.74 1005.14 1005.02 1005.77 1006.67 1006.88 1007.55 1007.81 1008.25 1008.62 1009.01 1008.86 1009.83 1011.67 1012.45 1012.89 1013.49 1013.92 1014.39 1014.66 1014.73 1014.91 1015.62 1015.98 1016.35 1016.50 1017.40 1017.91 1018.10 1018.30 1018.48 1018.57 1018.82 1018.94 1018.13 1018.55 1018.90 1018.88 1019.36 1019.50 1019.56 1019.59 1019.53 1019.46 1019.41 1019.30 1018.88
1005.98 1004.52 1004.97 1005.45 1005.60 1005.57 1006.36 1006.49 1007.15 1007.62 1008.03 1008.52 1009.13 1009.53 1010.65 1011.67 1012.10 1012.32 1012.80 1013.22 1013.86 1014.27 1014.63 1014.98 1015.11 1015.67 1016.11 1016.17 1017.02 1017.20 1017.38 1017.54 1017.81 1018.06 1018.46 1018.06 1017.75 1017.81 1018.03 1018.69 1019.35 1019.42 1019.42 1019.40 1019.34 1019.31 1019.26 1019.01 1017.34
1005.82 1004.90 1005.48 1005.60 1005.57 1005.72 1006.24 1006.57 1006.91 1006.99 1007.28 1007.73 1008.78 1009.90 1010.96 1011.52 1011.88 1012.00 1012.40 1012.77 1013.40 1013.99 1014.49 1015.02 1015.14 1015.58 1015.64 1015.79 1016.42 1016.66 1016.76 1017.03 1017.70 1018.25 1018.41 1018.08 1018.04 1018.25 1018.26 1018.03 1018.26 1018.47 1019.17 1018.39 1018.58 1018.45 1018.10 1017.87 1017.56
1005.24 1005.62 1005.48 1005.82 1005.77 1005.86 1006.16 1006.50 1006.66 1006.84 1007.14 1007.59 1008.66 1009.98 1010.67 1011.16 1011.46 1011.70 1012.01 1012.56 1013.17 1013.69 1014.24 1014.82 1015.25 1015.93 1015.87 1016.05 1016.45 1016.34 1016.47 1017.13 1017.35 1017.77 1018.46 1018.31 1018.40 1018.28 1018.31 1018.23 1018.34 1018.83 1018.72 1018.58 1018.56 1018.12 1018.17 1017.79 1017.68
1005.24 1005.31 1005.51 1005.71 1005.85 1005.81 1006.34 1006.47 1006.53 1006.96 1007.47 1007.86 1008.72 1009.87 1010.43 1010.68 1011.12 1011.47 1011.86 1012.41 1012.94 1013.62 1014.21 1014.57 1015.28 1015.86 1016.06 1016.65 1016.68 1016.76 1016.80 1017.28 1017.30 1017.75 1018.33 1018.32 1018.17 1018.29 1018.42 1018.25 1018.29 1018.35 1018.20 1018.27 1018.41 1018.14 1018.07 1017.97 1017.45
1005.50 1005.22 1005.28 1005.63 1005.73 1005.91 1006.05 1006.38 1006.68 1007.01 1007.66 1008.12 1008.92 1009.45 1009.95 1010.29 1010.74 1011.15 1011.67 1012.10 1012.72 1013.29 1013.89 1014.50 1015.37 1016.07 1016.30 1016.72 1017.09 1017.24 1017.10 1017.26 1017.57 1017.59 1017.78 1018.45 1018.12 1018.16 1018.06 1018.29 1018.18 1018.17 1018.21 1018.13 1018.10 1018.06 1017.96 1017.60 1017.48
1005.54 1004.91 1005.09 1005.43 1005.60 1005.56 1005.85 1005.95 1006.02 1006.49 1007.35 1008.01 1008.72 1009.24 1009.48 1009.94 1010.45 1010.87 1011.34 1011.76 1012.39 1013.02 1013.53 1014.20 1015.17 1015.72 1016.44 1016.82 1017.13 1017.14 1016.97 1016.99 1017.21 1017.33 1017.83 1018.20 1018.29 1018.28 1018.41 1018.00 1018.05 1017.91 1018.12 1018.64 1018.36 1018.30 1017.79 1017.59 1016.90
1005.03 1005.02 1004.45 1005.39 1005.48 1005.82 1005.78 1004.60 1005.11 1006.26 1007.16 1007.41 1008.12 1008.68 1009.15 1009.52 1009.95 1010.46 1011.01 1011.66 1012.13 1012.50 1013.38 1014.13 1014.59 1015.10 1015.99 1016.60 1016.89 1016.67 1016.67 1016.61 1016.87 1017.08 1017.28 1017.90 1018.12 1018.35 1018.41 1017.85 1017.71 1017.94 1018.20 1017.97 1017.96 1017.99 1017.86 1017.61 1017.09
1005.43 1004.37 1004.80 1005.16 1005.46 1005.34 1005.27 1004.45 1004.74 1005.77 1006.61 1006.74 1007.40 1007.96 1008.53 1008.92 1009.50 1010.08 1010.65 1011.11 1011.55 1012.40 1013.24 1014.05 1014.59 1014.79 1015.36 1016.03 1016.34 1016.57 1016.59 1016.61 1016.40 1016.53 1016.58 1017.08 1017.62 1017.88 1018.17 1017.75 1017.63 1018.29 1017.95 1017.94 1018.01 1018.00 1018.21 1017.75 1017.65
1004.60 1004.59 1004.73 1004.55 1004.87 1005.12 1004.65 1004.36 1004.13 1005.12 1005.62 1005.95 1006.53 1007.28 1007.79 1008.11 1008.49 1009.28 1010.05 1010.62 1011.20 1012.06 1012.95 1013.68 1014.34 1014.76 1015.37 1015.75 1016.01 1015.91 1016.03 1016.18 1016.18 1016.38 1016.46 1016.69 1016.93 1017.48 1017.81 1017.48 1017.70 1018.01 1017.81 1017.94 1018.15 1018.70 1018.59 1018.32 1017.89
1005.42 1005.43 1004.80 1004.38 1004.75 1005.02 1004.32 1003.73 1003.58 1003.96 1004.90 1005.01 1005.56 1006.33 1006.97 1007.28 1007.71 1008.37 1009.30 1010.06 1010.70 1011.46 1012.44 1013.23 1013.88 1014.59 1015.16 1015.36 1015.46 1015.47 1015.46 1015.65 1015.77 1016.00 1016.49 1016.81 1016.91 1017.09 1017.51 1017.14 1017.12 1017.54 1017.98 1018.50 1019.13 1019.29 1019.48 1019.01 1018.69
1005.27 1004.87 1004.17 1004.34 1004.84 1004.92 1003.97 1003.40 1003.21 1003.24 1003.93 1004.35 1004.67 1005.26 1005.93 1006.53 1006.89 1007.57 1008.47 1009.40 1010.14 1010.78 1011.87 1012.71 1013.34 1014.18 1014.79 1014.93 1015.06 1014.96 1015.06 1015.09 1015.10 1015.41 1015.91 1016.50 1016.69 1016.94 1017.13 1017.16 1017.03 1017.34 1018.13 1019.08 1019.28 1019.57 1019.64 1019.75 1019.86
1005.27 1005.18 1004.87 1004.68 1004.53 1004.36 1004.39 1002.34 1002.56 1002.93 1003.32 1003.91 1004.31 1004.58 1005.04 1005.37 1006.06 1006.74 1007.60 1008.49 1009.31 1010.14 1011.06 1011.87 1012.71 1013.43 1014.27 1014.48 1014.91 1015.32 1015.38 1015.40 1015.38 1015.59 1015.90 1016.01 1016.63 1016.85 1017.01 1017.06 1017.39 1018.34 1018.33 1018.82 1019.47 1020.11 1019.93 1020.36 1020.16
1004.76 1005.81 1005.30 1004.56 1003.95 1003.10 1004.31 1002.07 1001.85 1002.53 1002.96 1003.68 1004.00 1004.13 1004.32 1004.73 1005.46 1005.95 1006.73 1007.70 1008.46 1009.18 1010.15 1011.14 1012.26 1012.75 1013.39 1014.16 1014.33 1014.67 1014.72 1014.63 1014.58 1015.08 1015.43 1017.12 1017.43 1017.37 1017.45 1017.71 1018.02 1018.31 1019.02 1018.95 1019.31 1020.01 1020.63 1020.49 1020.09
1005.65 1005.81 1005.34 1004.76 1003.73 1003.23 1002.88 1002.29 1001.34 1002.28 1002.03 1002.74 1003.42 1003.74 1003.99 1004.19 1004.61 1005.23 1005.83 1006.92 1007.84 1008.59 1009.41 1010.50 1011.98 1012.25 1012.51 1013.43 1013.88 1014.25 1014.77 1014.49 1014.88 1015.73 1017.24 1017.87 1017.71 1017.77 1017.92 1018.27 1018.20 1018.44 1018.83 1019.16 1019.20 1019.73 1019.49 1019.59 1019.80
1005.87 1005.40 1004.48 1004.32 1003.47 1001.83 1003.15 1003.01 1000.84 1001.62 1002.71 1002.89 1003.22 1003.71 1003.88 1004.04 1004.54 1004.93 1005.57 1006.36 1007.18 1008.45 1009.19 1009.82 1010.99 1011.95 1012.43 1012.91 1013.59 1013.95 1014.24 1014.78 1015.51 1016.56 1017.58 1017.52 1017.56 1017.78 1018.05 1018.19 1018.52 1018.78 1018.33 1019.09 1019.02 1019.38 1019.84 1020.07 1019.72
1005.57 1004.40 1002.68 1002.50 1001.71 1001.71 1003.05 1002.66 1001.37 1002.15 1002.81 1003.54 1003.97 1004.12 1004.30 1004.49 1004.84 1005.19 1005.67 1006.30 1007.34 1008.66 1009.48 1010.02 1011.11 1011.82 1012.41 1013.05 1013.54 1014.28 1014.72 1015.37 1015.92 1016.95 1017.55 1017.58 1017.65 1018.02 1018.34 1018.43 1018.90 1018.78 1019.12 1019.42 1019.48 1019.70 1019.57 1019.51 1019.02
1004.57 1004.35 1003.42 1002.61 1001.97 1002.22 1002.80 1001.89 1001.21 1002.32 1003.17 1003.99 1004.48 1004.72 1005.06 1005.21 1005.16 1005.37 1005.43 1006.45 1007.66 1008.66 1009.28 1009.85 1010.76 1011.56 1012.20 1012.95 1014.09 1014.56 1014.94 1015.94 1016.99 1017.51 1017.92 1018.18 1018.31 1018.48 1018.45 1018.49 1018.63 1019.13 1019.43 1019.34 1019.53 1019.63 1019.26 1019.14 1018.85
1004.46 1004.19 1003.69 1003.32 1002.39 1002.33 1001.45 1001.57 1001.48 1002.05 1002.22 1003.32 1004.11 1004.69 1004.99 1005.58 1005.88 1006.11 1006.92 1007.78 1008.00 1008.64 1009.17 1009.93 1010.96 1011.73 1012.18 1012.48 1013.36 1015.10 1015.50 1016.33 1017.17 1017.73 1018.22 1018.05 1017.97 1017.90 1018.42 1018.49 1018.30 1018.93 1019.37 1018.85 1019.25 1019.31 1019.22 1019.34 1019.22
1004.48 1004.46 1003.52 1002.90 1002.75 1002.06 1001.48 1001.46 1000.77 1001.52 1002.03 1002.91 1003.46 1004.05 1004.83 1005.98 1006.76 1007.19 1007.61 1008.31 1008.69 1008.83 1009.35 1009.99 1010.58 1011.41 1011.92 1013.24 1014.12 1014.91 1015.85 1016.48 1016.91 1016.65 1017.04 1017.52 1017.81 1018.15 1018.52 1018.88 1018.54 1018.96 1018.96 1019.12 1019.34 1019.49 1019.49 1019.16 1019.05
1003.99 1003.77 1003.81 1003.53 1003.31 1002.54 1001.71 1001.00 1001.33 1001.87 1002.55 1002.84 1003.40 1004.17 1004.89 1006.13 1007.15 1007.90 1008.44 1009.08 1009.63 1009.97 1009.81 1009.73 1010.52 1010.82 1011.89 1013.07 1013.71 1013.70 1013.92 1014.48 1015.71 1016.65 1016.99 1017.71 1018.04 1018.04 1018.25 1018.85 1018.49 1018.86 1019.17 1019.35 1019.55 1019.54 1019.46 1019.34 1019.32
1003.65 1003.13 1003.07 1002.52 1002.69 1002.35 1002.35 1001.53 1001.90 1002.49 1002.79 1003.02 1003.11 1004.57 1005.62 1006.58 1008.20 1009.01 1009.57 1009.71 1009.99 1010.43 1010.44 1010.32 1010.66 1011.18 1011.91 1012.74 1013.38 1014.15 1015.16 1015.67 1015.68 1016.12 1016.83 1017.54 1017.66 1017.72 1017.96 1018.39 1018.56 1018.88 1019.09 1019.06 1019.22 1019.19 1019.06 1019.14 1019.35
Thickness
5829 5834 5837 5831 5810 5823 5799 5791 5809 5792 5790 5800 5800 5792 5788 5787 5784 5771 5793 5794 5790 5786 5779 5770 5769 5769 5769 5769 5769 5768 5765 5765 5765 5765 5764 5763 5761 5762 5762 5761 5760 5760 5759 5757 5755 5753 5751 5750 5747
5836 5834 5833 5827 5810 5801 5790 5809 5797 5800 5800 5802 5794 5793 5786 5776 5789 5786 5787 5792 5790 5788 5781 5777 5771 5770 5770 5769 5768 5767 5766 5766 5765 5766 5764 5763 5763 5763 5763 5762 5760 5759 5757 5756 5755 5753 5751 5749 5747
5833 5835 5823 5823 5817 5800 5791 5804 5800 5801 5801 5797 5790 5795 5789 5778 5786 5791 5797 5793 5791 5788 5785 5778 5772 5771 5771 5769 5768 5766 5765 5766 5766 5764 5764 5763 5764 5764 5764 5762 5760 5759 5758 5756 5755 5753 5752 5750 5749
5831 5832 5833 5818 5802 5809 5808 5809 5809 5800 5800 5802 5798 5782 5790 5796 5790 5797 5795 5793 5791 5789 5787 5775 5773 5772 5771 5768 5766 5766 5766 5766 5766 5766 5764 5764 5764 5764 5763 5762 5760 5759 5758 5757 5755 5754 5754 5753 5752
5834 5828 5814 5809 5807 5814 5820 5819 5815 5805 5802 5797 5800 5780 5778 5789 5796 5795 5792 5791 5790 5788 5786 5778 5774 5773 5771 5769 5768 5766 5767 5767 5767 5766 5765 5765 5764 5763 5763 5762 5761 5760 5758 5757 5756 5755 5755 5755 5755
5820 5827 5811 5801 5802 5813 5820 5823 5818 5811 5806 5802 5793 5787 5783 5793 5791 5792 5792 5791 5793 5790 5785 5778 5772 5771 5770 5771 5770 5769 5769 5768 5768 5767 5767 5765 5764 5764 5764 5763 5761 5760 5758 5757 5756 5756 5757 5758 5758
5822 5827 5810 5814 5806 5809 5814 5826 5817 5812 5806 5801 5807 5786 5785 5789 5794 5795 5792 5792 5791 5789 5787 5782 5778 5775 5772 5772 5771 5770 5771 5769 5769 5768 5767 5766 5765 5764 5763 5762 5762 5760 5759 5758 5757 5758 5759 5760 5760
5828 5833 5813 5817 5810 5807 5822 5823 5823 5818 5807 5819 5817 5789 5782 5794 5797 5794 5791 5789 5789 5789 5788 5787 5782 5780 5778 5777 5773 5772 5771 5769 5769 5769 5767 5766 5765 5764 5763 5762 5762 5761 5760 5759 5759 5760 5760 5762 5762
5839 5826 5811 5812 5817 5815 5827 5817 5825 5828 5812 5814 5814 5815 5814 5805 5801 5796 5790 5789 5787 5788 5790 5789 5785 5784 5782 5782 5776 5774 5773 5771 5771 5771 5770 5769 5774 5770 5767 5768 5764 5763 5762 5761 5761 5762 5763 5764 5767
5833 5829 5820 5833 5832 5827 5827 5827 5822 5816 5811 5808 5807 5818 5813 5806 5802 5798 5793 5790 5790 5789 5791 5791 5791 5788 5786 5787 5781 5780 5779 5778 5777 5775 5773 5776 5778 5777 5775 5770 5765 5764 5764 5764 5764 5765 5765 5767 5778
5834 5823 5832 5834 5840 5839 5828 5826 5833 5821 5810 5818 5806 5806 5806 5804 5802 5800 5799 5798 5794 5795 5794 5793 5793 5790 5791 5791 5787 5786 5786 5783 5778 5775 5773 5775 5776 5774 5773 5774 5773 5771 5767 5771 5770 5771 5773 5775 5777
5829 5836 5839 5835 5842 5837 5827 5834 5826 5827 5824 5834 5825 5816 5811 5806 5805 5806 5802 5801 5799 5797 5796 5795 5792 5788 5790 5789 5787 5790 5790 5784 5783 5780 5774 5775 5773 5773 5772 5773 5773 5770 5770 5772 5771 5773 5772 5774 5775
5833 5837 5841 5842 5841 5840 5837 5827 5826 5824 5832 5837 5828 5817 5811 5812 5810 5812 5811 5807 5803 5798 5798 5799 5794 5790 5788 5785 5786 5785 5785 5782 5782 5778 5774 5773 5773 5771 5770 5771 5771 5771 5773 5773 5772 5773 5773 5773 5776
5841 5843 5842 5841 5838 5838 5828 5827 5828 5829 5834 5828 5822 5818 5817 5815 5815 5813 5811 5809 5805 5803 5800 5800 5793 5788 5787 5784 5781 5780 5780 5779 5778 5778 5778 5773 5775 5774 5775 5773 5774 5774 5773 5774 5773 5773 5774 5776 5776
5843 5833 5840 5838 5839 5835 5840 5818 5820 5838 5834 5823 5819 5819 5820 5820 5820 5815 5815 5813 5811 5808 5807 5802 5795 5790 5785 5783 5781 5781 5782 5781 5780 5780 5777 5775 5774 5773 5772 5775 5775 5775 5773 5769 5770 5770 5773 5775 5779
5833 5834 5818 5832 5838 5836 5834 5815 5838 5842 5828 5823 5822 5821 5820 5820 5821 5821 5820 5817 5815 5813 5807 5805 5802 5797 5789 5783 5781 5783 5784 5785 5782 5780 5779 5775 5773 5771 5771 5775 5775 5774 5771 5772 5771 5771 5770 5772 5776
5819 5811 5813 5818 5839 5836 5831 5822 5843 5846 5832 5827 5824 5824 5822 5823 5823 5823 5823 5822 5820 5813 5807 5801 5800 5799 5794 5788 5785 5782 5782 5782 5784 5784 5783 5779 5774 5772 5769 5772 5772 5767 5770 5769 5769 5769 5766 5768 5769
5808 5809 5816 5815 5831 5832 5827 5827 5845 5843 5838 5833 5831 5826 5823 5823 5826 5828 5826 5825 5823 5817 5810 5804 5799 5797 5794 5791 5787 5786 5784 5782 5782 5781 5780 5778 5776 5772 5769 5770 5769 5767 5768 5766 5765 5760 5762 5763 5764
5819 5806 5811 5828 5835 5823 5827 5833 5842 5849 5841 5839 5836 5830 5826 5827 5834 5835 5830 5828 5824 5818 5810 5804 5799 5795 5791 5788 5787 5785 5782 5782 5782 5779 5775 5772 5771 5769 5766 5769 5770 5766 5764 5760 5754 5754 5751 5752 5757
5822 5817 5823 5832 5832 5824 5830 5830 5846 5852 5845 5845 5843 5838 5834 5832 5834 5834 5831 5826 5822 5818 5811 5806 5802 5796 5791 5790 5788 5790 5789 5788 5786 5782 5776 5771 5769 5766 5764 5764 5766 5765 5760 5751 5750 5748 5745 5744 5743
5820 5812 5815 5814 5830 5835 5821 5835 5837 5849 5852 5848 5849 5850 5846 5841 5834 5833 5829 5826 5824 5817 5811 5807 5802 5798 5792 5791 5788 5782 5781 5779 5776 5775 5772 5770 5765 5763 5761 5761 5759 5753 5753 5751 5743 5738 5738 5730 5737
5817 5821 5822 5822 5820 5813 5824 5808 5839 5843 5841 5841 5843 5847 5848 5846 5843 5839 5832 5827 5824 5820 5817 5809 5801 5799 5795 5789 5786 5779 5775 5772 5778 5775 5776 5760 5755 5755 5754 5752 5749 5746 5742 5744 5736 5729 5725 5725 5729
5813 5825 5819 5819 5821 5822 5824 5817 5840 5843 5840 5841 5845 5848 5850 5852 5848 5841 5837 5830 5826 5823 5818 5810 5798 5799 5797 5788 5784 5778 5770 5774 5773 5768 5755 5749 5749 5748 5747 5744 5743 5741 5736 5733 5734 5729 5726 5727 5729
5828 5821 5826 5823 5823 5814 5809 5806 5834 5830 5828 5838 5846 5845 5847 5848 5846 5843 5840 5834 5827 5819 5815 5811 5801 5794 5792 5787 5780 5776 5772 5766 5760 5755 5745 5747 5747 5745 5740 5739 5735 5734 5734 5727 5728 5726 5723 5719 5725
5819 5816 5809 5798 5810 5805 5815 5804 5825 5835 5838 5832 5829 5835 5840 5842 5838 5834 5829 5825 5818 5806 5803 5800 5789 5786 5784 5771 5774 5768 5765 5762 5758 5748 5742 5739 5738 5734 5731 5729 5727 5728 5724 5717 5718 5715 5720 5721 5725
5820 5816 5797 5768 5790 5798 5812 5795 5825 5837 5835 5830 5828 5829 5828 5828 5833 5830 5830 5822 5810 5803 5799 5797 5788 5782 5777 5773 5760 5760 5760 5752 5742 5736 5730 5727 5723 5719 5719 5720 5718 5715 5711 5714 5710 5709 5718 5718 5720
5815 5803 5829 5801 5820 5795 5819 5822 5837 5835 5833 5826 5820 5820 5821 5820 5821 5821 5815 5807 5804 5800 5795 5789 5779 5774 5771 5767 5761 5745 5747 5741 5733 5727 5720 5717 5714 5714 5708 5707 5710 5706 5704 5708 5701 5708 5712 5709 5709
5821 5827 5801 5810 5764 5765 5800 5797 5808 5817 5819 5818 5816 5817 5817 5812 5807 5807 5805 5800 5797 5796 5791 5785 5776 5762 5764 5758 5752 5744 5736 5728 5721 5717 5709 5705 5706 5701 5701 5697 5699 5697 5697 5696 5696 5699 5701 5705 5705
5813 5806 5806 5807 5796 5771 5768 5795 5828 5815 5814 5811 5811 5811 5810 5803 5798 5797 5794 5791 5785 5782 5783 5783 5774 5766 5759 5753 5748 5744 5738 5732 5724 5711 5708 5702 5699 5698 5699 5694 5697 5694 5691 5691 5692 5693 5695 5696 5695
5825 5817 5815 5795 5782 5799 5782 5786 5823 5814 5812 5811 5812 5802 5799 5795 5783 5780 5779 5781 5779 5773 5774 5775 5771 5765 5760 5752 5744 5730 5720 5715 5714 5712 5704 5701 5699 5700 5699 5694 5693 5691 5689 5690 5690 5690 5692 5690 5686